Stündliche Wetter Abernethy

Heute, 17 Juni, Donnerstag

Zeit Temperatur Niederschläge Wind Luftdruck Luftfeuchtigkeit
00:00 +10°C° 0 mm 1 m/S 743 mmHg 87%
01:00 +10°C° 0 mm 1 m/S 743 mmHg 88%
02:00 +10°C° 0 mm 1 m/S 743 mmHg 89%
03:00 +10°C° 0 mm 1 m/S 743 mmHg 90%
04:00 +11°C° 0 mm 1 m/S 743 mmHg 89%
05:00 +11°C° 0 mm 1 m/S 743 mmHg 88%
06:00 +12°C° 0 mm 1 m/S 743 mmHg 87%
07:00 +13°C° 0 mm 2 m/S 743 mmHg 81%
08:00 +15°C° 0 mm 2 m/S 744 mmHg 74%
09:00 +16°C° 0 mm 3 m/S 744 mmHg 67%
10:00 +17°C° 0 mm 3 m/S 744 mmHg 64%
11:00 +17°C° 0 mm 3 m/S 744 mmHg 60%
12:00 +18°C° 0 mm 3 m/S 744 mmHg 56%
13:00 +18°C° 0 mm 4 m/S 745 mmHg 57%
14:00 +18°C° 0 mm 4 m/S 745 mmHg 57%
15:00 +18°C° 0 mm 4 m/S 745 mmHg 57%
16:00 +17°C° 0 mm 4 m/S 745 mmHg 59%
17:00 +17°C° 0 mm 4 m/S 746 mmHg 61%
18:00 +15°C° 0 mm 4 m/S 746 mmHg 63%
19:00 +13°C° 0 mm 4 m/S 746 mmHg 69%
20:00 +12°C° 0 mm 3 m/S 747 mmHg 74%
21:00 +10°C° 0 mm 3 m/S 747 mmHg 79%
22:00 +9°C° 0 mm 3 m/S 747 mmHg 83%
23:00 +8°C° 0 mm 3 m/S 748 mmHg 86%

Morgen, 18 Juni, Freitag

Zeit Temperatur Niederschläge Wind Luftdruck Luftfeuchtigkeit
00:00 +7°C° 0 mm 2 m/S 748 mmHg 89%
01:00 +7°C° 0 mm 2 m/S 748 mmHg 89%
02:00 +7°C° 0 mm 2 m/S 749 mmHg 88%
03:00 +8°C° 0 mm 1 m/S 749 mmHg 88%
04:00 +8°C° 0 mm 1 m/S 749 mmHg 86%
05:00 +9°C° 0 mm 1 m/S 750 mmHg 84%
06:00 +10°C° 0 mm 1 m/S 750 mmHg 82%
07:00 +10°C° 0 mm 1 m/S 750 mmHg 82%
08:00 +11°C° 0 mm 1 m/S 750 mmHg 81%
09:00 +11°C° 0 mm 1 m/S 750 mmHg 80%
10:00 +12°C° 0.1 mm 1 m/S 751 mmHg 80%
11:00 +12°C° 0.1 mm 2 m/S 751 mmHg 80%
12:00 +12°C° 0.1 mm 3 m/S 751 mmHg 80%
13:00 +12°C° 0.1 mm 3 m/S 751 mmHg 78%
14:00 +12°C° 0.1 mm 3 m/S 750 mmHg 76%
15:00 +12°C° 0.1 mm 3 m/S 750 mmHg 74%
16:00 +12°C° 0.1 mm 3 m/S 750 mmHg 75%
17:00 +12°C° 0.1 mm 3 m/S 750 mmHg 77%
18:00 +11°C° 0.1 mm 3 m/S 750 mmHg 79%
19:00 +10°C° 0 mm 3 m/S 750 mmHg 83%
20:00 +9°C° 0 mm 2 m/S 750 mmHg 88%
21:00 +8°C° 0 mm 2 m/S 750 mmHg 92%
22:00 +8°C° 0 mm 2 m/S 750 mmHg 92%
23:00 +8°C° 0 mm 2 m/S 750 mmHg 92%

übermorgen, 19 Juni, Samstag

Zeit Temperatur Niederschläge Wind Luftdruck Luftfeuchtigkeit
00:00 +10°C° 0 mm 1 m/S 749 mmHg 92%
01:00 +9°C° 0 mm 1 m/S 749 mmHg 92%
02:00 +9°C° 0 mm 1 m/S 749 mmHg 92%
03:00 +9°C° 0 mm 1 m/S 748 mmHg 92%
04:00 +9°C° 0 mm 1 m/S 748 mmHg 92%
05:00 +9°C° 0 mm 2 m/S 748 mmHg 91%
06:00 +9°C° 0 mm 2 m/S 748 mmHg 90%
07:00 +10°C° 0.1 mm 2 m/S 748 mmHg 88%
08:00 +12°C° 0.1 mm 2 m/S 748 mmHg 86%
09:00 +11°C° 0.1 mm 3 m/S 748 mmHg 84%
10:00 +12°C° 0.3 mm 3 m/S 747 mmHg 83%
11:00 +13°C° 0.3 mm 4 m/S 747 mmHg 81%
12:00 +14°C° 0.3 mm 4 m/S 746 mmHg 79%
13:00 +14°C° 0.4 mm 4 m/S 746 mmHg 78%
14:00 +14°C° 0.4 mm 4 m/S 746 mmHg 78%
15:00 +14°C° 0.4 mm 4 m/S 746 mmHg 77%
16:00 +14°C° 0.3 mm 4 m/S 745 mmHg 79%
17:00 +14°C° 0.3 mm 4 m/S 745 mmHg 81%
18:00 +14°C° 0.3 mm 4 m/S 745 mmHg 83%
19:00 +13°C° 0.1 mm 4 m/S 745 mmHg 87%
20:00 +12°C° 0.1 mm 4 m/S 745 mmHg 91%
21:00 +11°C° 0.1 mm 3 m/S 745 mmHg 95%
22:00 +10°C° 0 mm 3 m/S 745 mmHg 96%
23:00 +10°C° 0 mm 3 m/S 745 mmHg 96%

20 Juni, Sonntag

Zeit Temperatur Niederschläge Wind Luftdruck Luftfeuchtigkeit
00:00 +10°C° 0 mm 3 m/S 745 mmHg 97%
01:00 +10°C° 0 mm 3 m/S 744 mmHg 97%
02:00 +10°C° 0 mm 3 m/S 744 mmHg 96%
03:00 +11°C° 0 mm 4 m/S 744 mmHg 96%
04:00 +11°C° 0 mm 4 m/S 743 mmHg 96%
05:00 +11°C° 0 mm 4 m/S 743 mmHg 95%
06:00 +10°C° 0 mm 5 m/S 743 mmHg 94%
07:00 +10°C° 0.2 mm 5 m/S 743 mmHg 93%
08:00 +10°C° 0.2 mm 5 m/S 743 mmHg 93%
09:00 +10°C° 0.2 mm 5 m/S 743 mmHg 92%
10:00 +10°C° 0.6 mm 5 m/S 743 mmHg 92%
11:00 +10°C° 0.6 mm 4 m/S 742 mmHg 92%
12:00 +10°C° 0.6 mm 4 m/S 742 mmHg 93%
13:00 +10°C° 1.4 mm 4 m/S 742 mmHg 93%
14:00 +10°C° 1.4 mm 4 m/S 741 mmHg 94%
15:00 +8°C° 1.4 mm 4 m/S 741 mmHg 94%
16:00 +8°C° 1.8 mm 4 m/S 741 mmHg 94%
17:00 +7°C° 1.8 mm 4 m/S 740 mmHg 94%
18:00 +7°C° 1.8 mm 4 m/S 740 mmHg 93%
19:00 +7°C° 0.5 mm 4 m/S 740 mmHg 94%
20:00 +8°C° 0.5 mm 3 m/S 740 mmHg 94%
21:00 +8°C° 0.5 mm 3 m/S 740 mmHg 95%
22:00 +7°C° 0.1 mm 3 m/S 740 mmHg 95%
23:00 +7°C° 0.1 mm 2 m/S 740 mmHg 94%

21 Juni, Montag

Zeit Temperatur Niederschläge Wind Luftdruck Luftfeuchtigkeit
00:00 +7°C° 0.1 mm 2 m/S 739 mmHg 94%
01:00 +7°C° 0 mm 2 m/S 739 mmHg 93%
02:00 +8°C° 0 mm 1 m/S 739 mmHg 93%
03:00 +8°C° 0 mm 1 m/S 739 mmHg 92%
04:00 +8°C° 0 mm 1 m/S 739 mmHg 92%
05:00 +9°C° 0 mm 1 m/S 739 mmHg 92%
06:00 +9°C° 0 mm 1 m/S 739 mmHg 92%
07:00 +9°C° 0.1 mm 1 m/S 740 mmHg 92%
08:00 +9°C° 0.1 mm 1 m/S 740 mmHg 92%
09:00 +9°C° 0.1 mm 1 m/S 740 mmHg 92%
10:00 +9°C° 0.2 mm 1 m/S 740 mmHg 92%
11:00 +9°C° 0.2 mm 1 m/S 740 mmHg 93%
12:00 +9°C° 0.2 mm 1 m/S 741 mmHg 93%
13:00 +9°C° 0.4 mm 1 m/S 741 mmHg 93%
14:00 +9°C° 0.4 mm 1 m/S 741 mmHg 94%
15:00 +8°C° 0.4 mm 2 m/S 741 mmHg 94%
16:00 +8°C° 0.4 mm 2 m/S 741 mmHg 95%
17:00 +8°C° 0.4 mm 2 m/S 741 mmHg 96%
18:00 +8°C° 0.4 mm 2 m/S 741 mmHg 96%
19:00 +8°C° 0.4 mm 2 m/S 741 mmHg 96%
20:00 +8°C° 0.4 mm 2 m/S 741 mmHg 96%
21:00 +8°C° 0.4 mm 2 m/S 741 mmHg 96%
22:00 +8°C° 1.1 mm 2 m/S 741 mmHg 96%
23:00 +8°C° 1.1 mm 2 m/S 741 mmHg 96%

22 Juni, Dienstag

Zeit Temperatur Niederschläge Wind Luftdruck Luftfeuchtigkeit
00:00 +8°C° 1.1 mm 2 m/S 741 mmHg 96%
01:00 +7°C° 2.3 mm 3 m/S 741 mmHg 96%
02:00 +7°C° 2.3 mm 3 m/S 741 mmHg 96%
03:00 +7°C° 2.3 mm 3 m/S 741 mmHg 96%
04:00 +7°C° 1.4 mm 3 m/S 741 mmHg 96%
05:00 +7°C° 1.4 mm 3 m/S 742 mmHg 95%
06:00 +7°C° 1.4 mm 3 m/S 742 mmHg 94%
07:00 +7°C° 1.3 mm 3 m/S 742 mmHg 93%
08:00 +7°C° 1.3 mm 4 m/S 742 mmHg 93%
09:00 +7°C° 1.3 mm 4 m/S 742 mmHg 92%
10:00 +7°C° 0.9 mm 4 m/S 742 mmHg 89%
11:00 +8°C° 0.9 mm 4 m/S 743 mmHg 86%
12:00 +8°C° 0.9 mm 4 m/S 743 mmHg 84%
13:00 +8°C° 0.3 mm 4 m/S 743 mmHg 82%
14:00 +8°C° 0.3 mm 4 m/S 743 mmHg 81%
15:00 +10°C° 0.3 mm 4 m/S 743 mmHg 79%
16:00 +10°C° 0 mm 4 m/S 743 mmHg 78%
17:00 +10°C° 0 mm 4 m/S 744 mmHg 76%
18:00 +11°C° 0 mm 4 m/S 744 mmHg 74%
19:00 +10°C° 0 mm 4 m/S 744 mmHg 75%
20:00 +9°C° 0 mm 3 m/S 744 mmHg 76%
21:00 +9°C° 0 mm 3 m/S 745 mmHg 77%
22:00 +8°C° 0 mm 3 m/S 745 mmHg 79%
23:00 +7°C° 0 mm 3 m/S 745 mmHg 81%
Mehr zeigen

Wir brauchen deine Erlaubnis

Meteoprog und unser Service Anbieter werden persönliche Daten aufbewahren, so wie Cookies, Geräte Bezeichnung oder ähnliche Technologien von deinem Gerät und Prozess, so wie Persönliche Daten Inhalte und Werbungen, genauso wie social Media und den Verkehr zu analysieren.

  • Aufbewahrung und/oder Zugang zu deiner Geräte Informationen.

    Cookies, Geräte Bezeichnung oder andere Informationen, können aufbewahrt oder Zugang zu deinem Gerät erhalten, für den Grund, der oben angegeben wird.

  • Personalisierte Werbung und Inhalte, Messungen, Einblick in das Publikum und Produkt Entwicklung.

    Werbungen und Inhalte können personalisiert werden, basierend auf ein Profil. Mehr Daten können besser personalisierte Werbungen und Inhalte hinzufügen. Werbung und Inhalte können gezeigt und gemessen werden. Einblicke über das Publikum, welche die Werbung gesehen haben und den Inhalt, können abgeleitet werden. So wie Daten können genutzt werden, um es zu verbessern oder die Benutzer Erfahrung zu verbessern das System und die Software.

Wenn du “Ich stimme zu” klickst, erlaubst du uns, die Cookies zu benutzen die Geräte Bezeichnung, den Web oder ähnliche Technologien zu benutzen. Deine Settings, können in deinem Gerät bei deinem Browser geändert werden.

Für den bestimmten Zweck, berechtigten Interessen beruhen darauf, mehr als auf den Inhalt. Du kannst mehr darüber in unseren Privaten und Cookie Politik lesen.